| time (UTC) | temp F | wind direction | speed MPH | gust MPH | rain 1hr in | rain 24hr in | rain mn in | humidity % | barometer mb |
| 20260508095749 | 42 | 291 | 0.0 | 0.0 | 0.00 | 0.00 | 0.00 | 99 | 1012.1 |
| 20260508095247 | 42 | 292 | 0.0 | 0.0 | 0.00 | 0.00 | 0.00 | 99 | 1012.1 |
| 20260508094744 | 42 | 287 | 0.0 | 0.0 | 0.00 | 0.00 | 0.00 | 99 | 1012.1 |
| 20260508094241 | 42 | 286 | 0.0 | 0.0 | 0.00 | 0.00 | 0.00 | 99 | 1011.9 |
| 20260508093738 | 43 | 287 | 0.0 | 0.0 | 0.00 | 0.00 | 0.00 | 99 | 1011.9 |
| 20260508093235 | 42 | 287 | 0.0 | 0.0 | 0.00 | 0.00 | 0.00 | 99 | 1012.0 |
| 20260508092732 | 43 | 287 | 0.0 | 0.0 | 0.00 | 0.00 | 0.00 | 99 | 1011.9 |
| 20260508092230 | 43 | 286 | 0.0 | 0.0 | 0.00 | 0.00 | 0.00 | 99 | 1011.7 |
| 20260508091728 | 43 | 286 | 0.0 | 0.0 | 0.00 | 0.00 | 0.00 | 99 | 1011.7 |
| 20260508091225 | 43 | 286 | 0.0 | 0.0 | 0.00 | 0.00 | 0.00 | 99 | 1011.6 |
| 20260508090723 | 44 | 286 | 0.0 | 0.0 | 0.00 | 0.00 | 0.00 | 99 | 1011.6 |
| 20260508090220 | 43 | 284 | 0.0 | 0.0 | 0.00 | 0.00 | 0.00 | 99 | 1011.6 |
| 20260508085716 | 44 | 284 | 0.0 | 0.0 | 0.00 | 0.00 | 0.00 | 99 | 1011.8 |
| 20260508085213 | 44 | 284 | 0.0 | 0.0 | 0.00 | 0.00 | 0.00 | 99 | 1011.7 |
| 20260508084709 | 44 | 283 | 0.0 | 0.0 | 0.00 | 0.00 | 0.00 | 99 | 1011.7 |
| 20260508084207 | 45 | 283 | 0.0 | 0.0 | 0.00 | 0.00 | 0.00 | 99 | 1011.6 |
| 20260508083704 | 44 | 283 | 0.0 | 0.0 | 0.00 | 0.00 | 0.00 | 99 | 1011.5 |
| 20260508083202 | 44 | 283 | 0.0 | 0.0 | 0.00 | 0.00 | 0.00 | 99 | 1011.5 |
| 20260508082656 | 44 | 283 | 0.0 | 0.0 | 0.00 | 0.00 | 0.00 | 99 | 1011.5 |
| 20260508082154 | 45 | 283 | 0.0 | 0.0 | 0.00 | 0.00 | 0.00 | 99 | 1011.3 |
| 20260508081651 | 45 | 283 | 0.0 | 0.0 | 0.00 | 0.00 | 0.00 | 99 | 1011.5 |
| 20260508081148 | 45 | 283 | 0.0 | 0.0 | 0.00 | 0.00 | 0.00 | 99 | 1011.3 |
| 20260508080645 | 45 | 283 | 0.0 | 0.0 | 0.00 | 0.00 | 0.00 | 99 | 1011.1 |
| 20260508080143 | 45 | 284 | 0.0 | 0.0 | 0.00 | 0.00 | 0.00 | 99 | 1011.1 |
| 20260508075639 | 45 | 282 | 0.0 | 0.0 | 0.00 | 0.00 | 0.00 | 99 | 1011.4 |
| 20260508075136 | 45 | 283 | 0.0 | 0.0 | 0.00 | 0.00 | 0.00 | 99 | 1011.1 |
| 20260508074634 | 45 | 283 | 0.0 | 0.0 | 0.00 | 0.00 | 0.00 | 99 | 1011.1 |
| 20260508074131 | 45 | 285 | 0.0 | 0.0 | 0.00 | 0.00 | 0.00 | 99 | 1011.1 |
| 20260508073628 | 45 | 285 | 0.0 | 0.0 | 0.00 | 0.00 | 0.00 | 99 | 1011.3 |
| 20260508073126 | 46 | 286 | 0.0 | 1.0 | 0.00 | 0.00 | 0.00 | 99 | 1010.9 |
| 20260508072621 | 46 | 284 | 0.0 | 1.0 | 0.00 | 0.00 | 0.00 | 99 | 1011.0 |
| 20260508072119 | 46 | 275 | 0.0 | 0.0 | 0.00 | 0.00 | 0.00 | 99 | 1011.1 |
| 20260508071616 | 46 | 274 | 0.0 | 0.0 | 0.00 | 0.00 | 0.00 | 99 | 1010.9 |
| 20260508071114 | 46 | 274 | 0.0 | 0.0 | 0.00 | 0.00 | 0.00 | 99 | 1011.0 |
| 20260508070611 | 46 | 275 | 0.0 | 0.0 | 0.00 | 0.00 | 0.00 | 99 | 1011.0 |
| 20260508070110 | 46 | 274 | 0.0 | 0.0 | 0.00 | 0.00 | 0.00 | 99 | 1010.9 |
| 20260508065607 | 46 | 274 | 0.0 | 0.0 | 0.00 | 0.00 | 0.00 | 99 | 1010.9 |
| 20260508065104 | 46 | 272 | 0.0 | 0.0 | 0.00 | 0.00 | 0.00 | 99 | 1010.7 |
| 20260508064602 | 47 | 272 | 0.0 | 0.0 | 0.00 | 0.00 | 0.00 | 99 | 1010.9 |
| 20260508064100 | 47 | 264 | 0.0 | 0.0 | 0.00 | 0.00 | 0.00 | 99 | 1011.0 |
| 20260508063557 | 47 | 265 | 0.0 | 0.0 | 0.00 | 0.00 | 0.00 | 99 | 1011.0 |
| 20260508063055 | 47 | 331 | 0.0 | 1.0 | 0.00 | 0.00 | 0.00 | 99 | 1011.0 |
| 20260508062552 | 47 | 331 | 0.0 | 0.0 | 0.00 | 0.00 | 0.00 | 99 | 1010.8 |
| 20260508062048 | 47 | 331 | 0.0 | 0.0 | 0.00 | 0.00 | 0.00 | 99 | 1010.9 |
| 20260508061546 | 47 | 331 | 0.0 | 0.0 | 0.00 | 0.00 | 0.00 | 99 | 1010.9 |
| 20260508061043 | 47 | 331 | 0.0 | 0.0 | 0.00 | 0.00 | 0.00 | 99 | 1010.7 |
| 20260508060540 | 47 | 331 | 0.0 | 0.0 | 0.00 | 0.00 | 0.00 | 99 | 1010.8 |
| 20260508060038 | 47 | 331 | 0.0 | 0.0 | 0.00 | 0.00 | 0.00 | 99 | 1010.9 |
| 20260508055533 | 47 | 331 | 0.0 | 0.0 | 0.00 | 0.00 | 0.00 | 99 | 1010.8 |
| 20260508055030 | 47 | 331 | 0.0 | 0.0 | 0.00 | 0.00 | 0.00 | 99 | 1010.8 |
| 20260508054526 | 48 | 331 | 0.0 | 0.0 | 0.00 | 0.00 | 0.00 | 99 | 1010.7 |
| 20260508054024 | 48 | 331 | 0.0 | 0.0 | 0.00 | 0.00 | 0.00 | 99 | 1010.9 |
| 20260508053520 | 48 | 331 | 0.0 | 0.0 | 0.00 | 0.00 | 0.00 | 99 | 1010.8 |
| 20260508053019 | 48 | 331 | 0.0 | 0.0 | 0.00 | 0.00 | 0.00 | 99 | 1010.6 |
| 20260508052515 | 48 | 331 | 0.0 | 1.0 | 0.00 | 0.00 | 0.00 | 99 | 1010.9 |
| 20260508052011 | 48 | 331 | 0.0 | 0.0 | 0.00 | 0.00 | 0.00 | 99 | 1010.7 |
| 20260508051503 | 48 | 331 | 0.0 | 0.0 | 0.00 | 0.00 | 0.00 | 99 | 1010.7 |
| 20260508050958 | 49 | 331 | 0.0 | 0.0 | 0.00 | 0.00 | 0.00 | 99 | 1010.4 |
| 20260508050455 | 49 | 331 | 0.0 | 0.0 | 0.00 | 0.00 | 0.00 | 99 | 1010.6 |
| 20260508045951 | 49 | 331 | 0.0 | 0.0 | 0.00 | 1.15 | 1.15 | 99 | 1010.6 |
| 20260508045448 | 49 | 331 | 0.0 | 0.0 | 0.00 | 1.15 | 1.15 | 99 | 1010.7 |
| 20260508044946 | 49 | 332 | 0.0 | 0.0 | 0.00 | 1.15 | 1.15 | 99 | 1010.7 |
| 20260508044443 | 49 | 332 | 0.0 | 0.0 | 0.00 | 1.15 | 1.15 | 99 | 1010.5 |
| 20260508043938 | 49 | 332 | 0.0 | 0.0 | 0.00 | 1.15 | 1.15 | 99 | 1010.5 |
| 20260508043436 | 50 | 333 | 0.0 | 0.0 | 0.00 | 1.15 | 1.15 | 99 | 1010.5 |
| 20260508042932 | 50 | 358 | 0.0 | 0.0 | 0.00 | 1.15 | 1.15 | 99 | 1010.3 |
| 20260508042430 | 50 | 359 | 0.0 | 0.0 | 0.00 | 1.15 | 1.15 | 99 | 1010.5 |
| 20260508041927 | 50 | 1 | 0.0 | 0.0 | 0.00 | 1.15 | 1.15 | 99 | 1010.6 |
| 20260508041423 | 50 | 1 | 0.0 | 0.0 | 0.00 | 1.15 | 1.15 | 99 | 1010.6 |
| 20260508040920 | 50 | 2 | 0.0 | 0.0 | 0.00 | 1.15 | 1.15 | 99 | 1010.3 |
| 20260508040417 | 51 | 264 | 0.0 | 0.0 | 0.00 | 1.15 | 1.15 | 99 | 1010.1 |
| 20260508035915 | 51 | 256 | 0.0 | 0.0 | 0.00 | 1.15 | 1.15 | 99 | 1010.4 |
| 20260508035412 | 50 | 256 | 0.0 | 0.0 | 0.00 | 1.15 | 1.15 | 99 | 1010.3 |
| 20260508034908 | 50 | 260 | 0.0 | 0.0 | 0.00 | 1.15 | 1.15 | 99 | 1010.1 |
| 20260508034406 | 51 | 271 | 0.0 | 0.0 | 0.00 | 1.15 | 1.15 | 99 | 1010.4 |
| 20260508033902 | 51 | 257 | 0.0 | 0.0 | 0.00 | 1.15 | 1.15 | 99 | 1010.2 |
| 20260508033401 | 51 | 257 | 0.0 | 0.0 | 0.00 | 1.15 | 1.15 | 99 | 1010.1 |
| 20260508032858 | 51 | 262 | 0.0 | 0.0 | 0.00 | 1.15 | 1.15 | 99 | 1010.2 |
| 20260508032355 | 51 | 262 | 0.0 | 1.0 | 0.00 | 1.15 | 1.15 | 99 | 1010.1 |
| 20260508031851 | 51 | 159 | 0.0 | 0.0 | 0.00 | 1.15 | 1.15 | 99 | 1010.2 |
| 20260508031349 | 51 | 161 | 0.0 | 0.0 | 0.00 | 1.15 | 1.15 | 99 | 1010.1 |
| 20260508030844 | 51 | 16 | 1.0 | 1.0 | 0.00 | 1.15 | 1.15 | 99 | 1010.2 |
| 20260508030342 | 51 | 19 | 1.0 | 1.0 | 0.00 | 1.15 | 1.15 | 99 | 1010.0 |
| 20260508025838 | 52 | 305 | 0.0 | 1.0 | 0.00 | 1.15 | 1.15 | 99 | 1010.1 |
| 20260508025335 | 52 | 259 | 0.0 | 0.0 | 0.00 | 1.15 | 1.15 | 99 | 1009.9 |
| 20260508024832 | 52 | 259 | 0.0 | 0.0 | 0.00 | 1.15 | 1.15 | 99 | 1009.8 |
| 20260508024329 | 51 | 313 | 0.0 | 0.0 | 0.00 | 1.15 | 1.15 | 99 | 1009.7 |
| 20260508023826 | 52 | 313 | 0.0 | 0.0 | 0.00 | 1.15 | 1.15 | 99 | 1010.0 |
| 20260508023323 | 52 | 313 | 0.0 | 0.0 | 0.00 | 1.15 | 1.15 | 99 | 1009.7 |
| 20260508022819 | 52 | 313 | 0.0 | 0.0 | 0.00 | 1.15 | 1.15 | 99 | 1010.0 |
| 20260508022315 | 53 | 292 | 0.0 | 0.0 | 0.00 | 1.15 | 1.15 | 99 | 1009.9 |
| 20260508021812 | 53 | 292 | 0.0 | 0.0 | 0.00 | 1.15 | 1.15 | 99 | 1009.5 |
| 20260508021308 | 53 | 246 | 0.0 | 0.0 | 0.00 | 1.15 | 1.15 | 99 | 1009.5 |
| 20260508020804 | 53 | 246 | 0.0 | 0.0 | 0.00 | 1.15 | 1.15 | 99 | 1009.3 |
| 20260508020303 | 53 | 246 | 0.0 | 0.0 | 0.00 | 1.15 | 1.15 | 99 | 1009.5 |
| 20260508015759 | 53 | 246 | 0.0 | 0.0 | 0.00 | 1.15 | 1.15 | 99 | 1009.2 |
| 20260508015256 | 53 | 246 | 0.0 | 0.0 | 0.00 | 1.15 | 1.15 | 99 | 1009.1 |
| 20260508014753 | 53 | 246 | 0.0 | 0.0 | 0.00 | 1.15 | 1.15 | 99 | 1009.0 |
| 20260508014250 | 54 | 247 | 0.0 | 0.0 | 0.00 | 1.15 | 1.15 | 99 | 1009.1 |
| 20260508013746 | 54 | 245 | 0.0 | 0.0 | 0.00 | 1.15 | 1.15 | 99 | 1008.9 |
| 20260508013242 | 54 | 245 | 1.0 | 1.0 | 0.00 | 1.15 | 1.15 | 99 | 1008.8 |
| 20260508012740 | 54 | 245 | 0.0 | 0.0 | 0.00 | 1.15 | 1.15 | 99 | 1008.7 |
| 20260508012237 | 55 | 245 | 1.0 | 1.0 | 0.00 | 1.15 | 1.15 | 99 | 1008.5 |
| 20260508011735 | 55 | 258 | 1.0 | 1.0 | 0.00 | 1.15 | 1.15 | 99 | 1008.5 |
| 20260508011232 | 55 | 281 | 0.0 | 0.0 | 0.00 | 1.15 | 1.15 | 99 | 1008.2 |
| 20260508010729 | 55 | 281 | 0.0 | 0.0 | 0.00 | 1.15 | 1.15 | 99 | 1008.2 |
| 20260508010227 | 55 | 281 | 0.0 | 0.0 | 0.00 | 1.15 | 1.15 | 99 | 1008.0 |
| 20260508005724 | 55 | 281 | 0.0 | 0.0 | 0.00 | 1.15 | 1.15 | 99 | 1007.9 |
| 20260508005221 | 55 | 19 | 1.0 | 1.0 | 0.00 | 1.15 | 1.15 | 99 | 1007.8 |
| 20260508004716 | 55 | 266 | 0.0 | 0.0 | 0.00 | 1.15 | 1.15 | 99 | 1007.7 |
| 20260508004212 | 56 | 265 | 1.0 | 1.0 | 0.00 | 1.15 | 1.15 | 99 | 1007.6 |
| 20260508003709 | 56 | 250 | 0.0 | 0.0 | 0.00 | 1.15 | 1.15 | 99 | 1007.7 |
| 20260508003207 | 56 | 250 | 0.0 | 0.0 | 0.00 | 1.15 | 1.15 | 99 | 1007.7 |
| 20260508002703 | 56 | 250 | 0.0 | 1.0 | 0.00 | 1.15 | 1.15 | 99 | 1007.7 |
| 20260508002201 | 56 | 253 | 0.0 | 0.0 | 0.00 | 1.15 | 1.15 | 99 | 1007.4 |
| 20260508001656 | 56 | 259 | 0.0 | 0.0 | 0.00 | 1.15 | 1.15 | 99 | 1007.4 |
| 20260508001152 | 56 | 267 | 0.0 | 1.0 | 0.00 | 1.15 | 1.15 | 99 | 1007.6 |
| 20260508000648 | 57 | 263 | 0.0 | 0.0 | 0.00 | 1.15 | 1.15 | 99 | 1007.6 |
| 20260508000145 | 57 | 252 | 0.0 | 0.0 | 0.00 | 1.15 | 1.15 | 99 | 1007.6 |
| 20260507235642 | 57 | 251 | 0.0 | 1.0 | 0.00 | 1.15 | 1.15 | 99 | 1007.4 |
| 20260507235139 | 57 | 333 | 0.0 | 1.0 | 0.00 | 1.15 | 1.15 | 99 | 1007.6 |
| 20260507234636 | 57 | 23 | 0.0 | 1.0 | 0.00 | 1.15 | 1.15 | 99 | 1007.6 |
| 20260507234132 | 57 | 332 | 0.0 | 1.0 | 0.00 | 1.15 | 1.15 | 99 | 1007.7 |
| 20260507233630 | 57 | 41 | 1.0 | 1.0 | 0.00 | 1.15 | 1.15 | 98 | 1007.2 |
| 20260507233128 | 57 | 28 | 0.0 | 1.0 | 0.00 | 1.15 | 1.15 | 98 | 1007.4 |
| 20260507232625 | 57 | 6 | 1.0 | 1.0 | 0.00 | 1.15 | 1.15 | 98 | 1007.6 |
| 20260507232122 | 57 | 327 | 0.0 | 0.0 | 0.00 | 1.15 | 1.15 | 98 | 1007.3 |
| 20260507231618 | 57 | 272 | 1.0 | 1.0 | 0.00 | 1.15 | 1.15 | 98 | 1007.0 |
| 20260507231115 | 57 | 290 | 0.0 | 0.0 | 0.00 | 1.15 | 1.15 | 98 | 1007.2 |
| 20260507230611 | 57 | 304 | 0.0 | 0.0 | 0.00 | 1.15 | 1.15 | 98 | 1007.0 |
| 20260507230109 | 57 | 180 | 1.0 | 1.0 | 0.00 | 1.15 | 1.15 | 98 | 1006.6 |
| 20260507225603 | 57 | 20 | 0.0 | 0.0 | 0.00 | 1.15 | 1.15 | 98 | 1006.4 |
| 20260507225100 | 57 | 208 | 1.0 | 1.0 | 0.00 | 1.15 | 1.15 | 98 | 1006.5 |
| 20260507224555 | 57 | 333 | 0.0 | 1.0 | 0.00 | 1.15 | 1.15 | 98 | 1006.4 |
| 20260507224052 | 57 | 64 | 1.0 | 1.0 | 0.00 | 1.15 | 1.15 | 98 | 1006.2 |
| 20260507223548 | 57 | 28 | 1.0 | 1.0 | 0.00 | 1.15 | 1.15 | 98 | 1006.3 |
| 20260507223046 | 57 | 94 | 1.0 | 1.0 | 0.00 | 1.15 | 1.15 | 98 | 1006.3 |
| 20260507222543 | 58 | 244 | 0.0 | 0.0 | 0.00 | 1.15 | 1.15 | 98 | 1006.1 |
| 20260507222039 | 57 | 322 | 0.0 | 0.0 | 0.00 | 1.15 | 1.15 | 97 | 1006.1 |
| 20260507221535 | 58 | 35 | 1.0 | 1.0 | 0.00 | 1.15 | 1.15 | 97 | 1006.1 |
| 20260507221032 | 58 | 30 | 1.0 | 2.0 | 0.00 | 1.15 | 1.15 | 97 | 1005.8 |
| 20260507220529 | 58 | 92 | 4.0 | 5.0 | 0.00 | 1.15 | 1.15 | 98 | 1005.6 |
| 20260507220027 | 58 | 356 | 4.0 | 6.0 | 0.00 | 1.15 | 1.15 | 98 | 1005.7 |
| 20260507215523 | 58 | 36 | 6.0 | 8.0 | 0.00 | 1.15 | 1.15 | 98 | 1005.5 |
| 20260507215021 | 58 | 121 | 2.0 | 2.0 | 0.00 | 1.15 | 1.15 | 98 | 1005.6 |
| 20260507214518 | 58 | 98 | 4.0 | 5.0 | 0.05 | 1.15 | 1.15 | 98 | 1005.9 |
| 20260507214014 | 57 | 37 | 1.0 | 2.0 | 0.28 | 1.15 | 1.15 | 98 | 1005.9 |
| 20260507213510 | 58 | 63 | 4.0 | 5.0 | 0.42 | 1.14 | 1.14 | 98 | 1005.9 |
| 20260507213007 | 58 | 256 | 0.0 | 0.0 | 0.42 | 1.10 | 1.10 | 98 | 1006.1 |
| 20260507212503 | 58 | 2 | 3.0 | 3.0 | 0.17 | 1.06 | 1.06 | 98 | 1005.5 |
| 20260507212000 | 58 | 48 | 4.0 | 5.0 | 0.00 | 1.03 | 1.03 | 98 | 1005.2 |
| 20260507211456 | 59 | 338 | 2.0 | 3.0 | 0.00 | 1.03 | 1.03 | 98 | 1005.3 |
| 20260507210953 | 59 | 186 | 1.0 | 1.0 | 0.00 | 1.03 | 1.03 | 97 | 1005.4 |
| 20260507210450 | 59 | 95 | 3.0 | 5.0 | 0.00 | 1.03 | 1.03 | 97 | 1005.1 |
| 20260507205947 | 59 | 34 | 5.0 | 6.0 | 0.00 | 1.03 | 1.03 | 97 | 1005.0 |
| 20260507205444 | 59 | 30 | 4.0 | 5.0 | 0.00 | 1.03 | 1.03 | 97 | 1005.2 |
| 20260507204940 | 59 | 62 | 2.0 | 2.0 | 0.00 | 1.03 | 1.03 | 98 | 1005.1 |
| 20260507204436 | 59 | 130 | 3.0 | 3.0 | 0.07 | 1.03 | 1.03 | 98 | 1005.1 |
| 20260507203934 | 59 | 30 | 3.0 | 5.0 | 0.07 | 1.03 | 1.03 | 98 | 1005.2 |
| 20260507203432 | 59 | 299 | 2.0 | 2.0 | 0.12 | 1.02 | 1.02 | 98 | 1005.6 |
| 20260507202928 | 59 | 53 | 3.0 | 3.0 | 0.28 | 1.02 | 1.02 | 98 | 1005.2 |
| 20260507202425 | 59 | 9 | 7.0 | 8.0 | 0.24 | 1.00 | 1.00 | 98 | 1005.4 |
| 20260507201921 | 59 | 88 | 1.0 | 2.0 | 0.19 | 0.97 | 0.97 | 98 | 1005.1 |
| 20260507201416 | 60 | 349 | 4.0 | 5.0 | 0.42 | 0.96 | 0.96 | 98 | 1005.1 |
| 20260507200913 | 59 | 139 | 2.0 | 2.0 | 0.35 | 0.94 | 0.94 | 97 | 1005.4 |
| 20260507200408 | 60 | 18 | 2.0 | 2.0 | 0.12 | 0.89 | 0.89 | 97 | 1005.4 |
| 20260507195904 | 60 | 47 | 1.0 | 2.0 | 0.50 | 0.88 | 0.88 | 97 | 1005.3 |
| 20260507195402 | 60 | 115 | 1.0 | 1.0 | 0.66 | 0.86 | 0.86 | 97 | 1005.0 |
| 20260507194859 | 60 | 92 | 3.0 | 3.0 | 1.96 | 0.80 | 0.80 | 96 | 1005.2 |
| 20260507194356 | 61 | 237 | 3.0 | 3.0 | 2.60 | 0.75 | 0.75 | 95 | 1005.3 |
| 20260507193852 | 63 | 296 | 2.0 | 3.0 | 0.97 | 0.48 | 0.48 | 92 | 1005.4 |
| 20260507193349 | 65 | 37 | 7.0 | 9.0 | 0.00 | 0.32 | 0.32 | 88 | 1004.7 |
| 20260507192845 | 66 | 50 | 3.0 | 3.0 | 0.00 | 0.32 | 0.32 | 87 | 1004.3 |
| 20260507192342 | 66 | 195 | 1.0 | 2.0 | 0.00 | 0.32 | 0.32 | 87 | 1004.0 |
| 20260507191838 | 67 | 95 | 6.0 | 7.0 | 0.00 | 0.32 | 0.32 | 87 | 1004.4 |
| 20260507191335 | 68 | 38 | 3.0 | 3.0 | 0.00 | 0.32 | 0.32 | 86 | 1004.1 |
| 20260507190832 | 68 | 18 | 1.0 | 2.0 | 0.00 | 0.32 | 0.32 | 87 | 1003.8 |
| 20260507190330 | 68 | 119 | 3.0 | 3.0 | 0.00 | 0.32 | 0.32 | 86 | 1003.8 |
| 20260507185829 | 69 | 78 | 3.0 | 3.0 | 0.00 | 0.32 | 0.32 | 86 | 1004.0 |
| 20260507185325 | 70 | 68 | 6.0 | 8.0 | 0.00 | 0.32 | 0.32 | 83 | 1004.1 |
| 20260507184822 | 73 | 128 | 3.0 | 6.0 | 0.00 | 0.32 | 0.32 | 77 | 1004.2 |
| 20260507184320 | 73 | 321 | 0.0 | 1.0 | 0.00 | 0.32 | 0.32 | 77 | 1004.5 |
| 20260507183817 | 73 | 230 | 1.0 | 1.0 | 0.00 | 0.32 | 0.32 | 78 | 1004.4 |
| 20260507183314 | 73 | 91 | 1.0 | 1.0 | 0.00 | 0.32 | 0.32 | 79 | 1004.5 |
| 20260507182811 | 73 | 66 | 1.0 | 1.0 | 0.00 | 0.32 | 0.32 | 80 | 1004.3 |
| 20260507182307 | 72 | 91 | 1.0 | 1.0 | 0.00 | 0.32 | 0.32 | 83 | 1004.4 |
| 20260507181803 | 72 | 147 | 0.0 | 1.0 | 0.00 | 0.32 | 0.32 | 81 | 1004.6 |
| 20260507181259 | 72 | 45 | 0.0 | 1.0 | 0.00 | 0.32 | 0.32 | 80 | 1004.3 |
| 20260507180756 | 73 | 246 | 0.0 | 1.0 | 0.00 | 0.32 | 0.32 | 82 | 1004.4 |
| 20260507180253 | 72 | 200 | 0.0 | 1.0 | 0.00 | 0.32 | 0.32 | 82 | 1004.4 |
| 20260507175748 | 73 | 225 | 1.0 | 1.0 | 0.00 | 0.32 | 0.32 | 81 | 1004.6 |
| 20260507175246 | 73 | 212 | 1.0 | 1.0 | 0.00 | 0.32 | 0.32 | 78 | 1004.4 |
| 20260507174743 | 72 | 213 | 1.0 | 1.0 | 0.00 | 0.32 | 0.32 | 77 | 1004.6 |
| 20260507174241 | 71 | 244 | 0.0 | 0.0 | 0.00 | 0.32 | 0.32 | 86 | 1004.6 |
| 20260507173739 | 72 | 243 | 1.0 | 1.0 | 0.00 | 0.32 | 0.32 | 83 | 1004.8 |
| 20260507173235 | 73 | 244 | 0.0 | 1.0 | 0.00 | 0.32 | 0.32 | 82 | 1004.7 |
| 20260507172732 | 73 | 163 | 1.0 | 1.0 | 0.00 | 0.32 | 0.32 | 79 | 1004.9 |
| 20260507172229 | 74 | 243 | 0.0 | 1.0 | 0.00 | 0.32 | 0.32 | 81 | 1004.9 |
| 20260507171728 | 73 | 257 | 1.0 | 1.0 | 0.00 | 0.32 | 0.32 | 81 | 1005.2 |
| 20260507171226 | 72 | 53 | 3.0 | 3.0 | 0.00 | 0.32 | 0.32 | 81 | 1005.2 |
| 20260507170723 | 72 | 264 | 1.0 | 1.0 | 0.00 | 0.32 | 0.32 | 88 | 1005.3 |
| 20260507170220 | 71 | 261 | 1.0 | 1.0 | 0.00 | 0.32 | 0.32 | 89 | 1005.4 |
| 20260507165715 | 69 | 323 | 1.0 | 1.0 | 0.00 | 0.32 | 0.32 | 92 | 1005.4 |
| 20260507165212 | 68 | 262 | 0.0 | 0.0 | 0.00 | 0.32 | 0.32 | 94 | 1005.3 |
| 20260507164708 | 68 | 248 | 0.0 | 0.0 | 0.00 | 0.32 | 0.32 | 93 | 1005.5 |
| 20260507164206 | 68 | 298 | 0.0 | 1.0 | 0.00 | 0.32 | 0.32 | 93 | 1005.3 |
| 20260507163702 | 67 | 79 | 0.0 | 1.0 | 0.00 | 0.32 | 0.32 | 95 | 1005.4 |
| 20260507163200 | 67 | 237 | 0.0 | 0.0 | 0.00 | 0.32 | 0.32 | 97 | 1005.5 |
| 20260507162656 | 67 | 236 | 1.0 | 1.0 | 0.00 | 0.32 | 0.32 | 96 | 1005.8 |
| 20260507162152 | 67 | 241 | 1.0 | 1.0 | 0.00 | 0.32 | 0.32 | 97 | 1005.2 |
| 20260507161648 | 67 | 7 | 1.0 | 1.0 | 0.00 | 0.32 | 0.32 | 98 | 1005.2 |
| 20260507161145 | 66 | 41 | 0.0 | 0.0 | 0.00 | 0.32 | 0.32 | 99 | 1005.1 |
| 20260507160642 | 66 | 54 | 2.0 | 2.0 | 0.00 | 0.32 | 0.32 | 99 | 1005.0 |
| 20260507160138 | 66 | 322 | 1.0 | 1.0 | 0.00 | 0.32 | 0.32 | 99 | 1005.0 |
| 20260507155634 | 66 | 242 | 0.0 | 0.0 | 0.00 | 0.32 | 0.32 | 99 | 1004.9 |
| 20260507155131 | 66 | 137 | 0.0 | 1.0 | 0.00 | 0.32 | 0.32 | 99 | 1005.1 |
| 20260507154627 | 66 | 273 | 0.0 | 0.0 | 0.00 | 0.32 | 0.32 | 99 | 1005.2 |
| 20260507154125 | 65 | 250 | 0.0 | 0.0 | 0.00 | 0.32 | 0.32 | 99 | 1005.3 |
| 20260507153621 | 65 | 274 | 0.0 | 0.0 | 0.00 | 0.32 | 0.32 | 99 | 1005.5 |
| 20260507153118 | 65 | 99 | 1.0 | 1.0 | 0.00 | 0.32 | 0.32 | 99 | 1005.3 |
| 20260507152614 | 65 | 247 | 0.0 | 0.0 | 0.00 | 0.32 | 0.32 | 99 | 1005.7 |
| 20260507152110 | 65 | 247 | 0.0 | 0.0 | 0.00 | 0.32 | 0.32 | 99 | 1005.7 |
| 20260507151606 | 65 | 245 | 0.0 | 0.0 | 0.00 | 0.32 | 0.32 | 99 | 1005.7 |
| 20260507151103 | 64 | 268 | 0.0 | 0.0 | 0.00 | 0.32 | 0.32 | 99 | 1006.0 |
| 20260507150601 | 64 | 270 | 0.0 | 0.0 | 0.00 | 0.32 | 0.32 | 99 | 1006.3 |
| 20260507150057 | 65 | 226 | 0.0 | 0.0 | 0.00 | 0.32 | 0.32 | 99 | 1006.1 |
| 20260507145552 | 65 | 231 | 0.0 | 1.0 | 0.00 | 0.32 | 0.32 | 99 | 1006.2 |
| 20260507145050 | 65 | 210 | 0.0 | 0.0 | 0.00 | 0.32 | 0.32 | 99 | 1006.3 |
| 20260507144546 | 64 | 219 | 0.0 | 0.0 | 0.00 | 0.32 | 0.32 | 99 | 1006.5 |
| 20260507144045 | 64 | 215 | 0.0 | 0.0 | 0.00 | 0.32 | 0.32 | 99 | 1006.4 |
| 20260507143541 | 64 | 234 | 0.0 | 0.0 | 0.00 | 0.32 | 0.32 | 99 | 1006.5 |
| 20260507143039 | 64 | 234 | 1.0 | 1.0 | 0.00 | 0.32 | 0.32 | 99 | 1006.1 |
| 20260507142539 | 64 | 220 | 0.0 | 1.0 | 0.05 | 0.32 | 0.32 | 99 | 1005.7 |
| 20260507142036 | 64 | 201 | 0.0 | 0.0 | 0.05 | 0.32 | 0.32 | 99 | 1005.7 |
| 20260507141532 | 64 | 218 | 0.0 | 0.0 | 0.00 | 0.31 | 0.31 | 99 | 1005.6 |
| 20260507141029 | 64 | 246 | 1.0 | 1.0 | 0.00 | 0.31 | 0.31 | 99 | 1006.1 |
| 20260507140526 | 64 | 201 | 0.0 | 0.0 | 0.07 | 0.31 | 0.31 | 99 | 1005.8 |
| 20260507140023 | 64 | 268 | 0.0 | 0.0 | 0.12 | 0.31 | 0.31 | 99 | 1005.9 |
| 20260507135520 | 64 | 270 | 0.0 | 0.0 | 0.12 | 0.30 | 0.30 | 99 | 1006.0 |
| 20260507135017 | 64 | 273 | 0.0 | 0.0 | 0.07 | 0.29 | 0.29 | 99 | 1006.1 |
| 20260507134514 | 63 | 246 | 0.0 | 0.0 | 0.05 | 0.28 | 0.28 | 99 | 1006.1 |
| 20260507134009 | 63 | 246 | 1.0 | 1.0 | 0.05 | 0.28 | 0.28 | 99 | 1005.9 |
| 20260507133505 | 63 | 287 | 0.0 | 0.0 | 0.00 | 0.27 | 0.27 | 99 | 1005.5 |
| 20260507133004 | 63 | 249 | 0.0 | 0.0 | 0.00 | 0.27 | 0.27 | 99 | 1005.7 |
| 20260507132500 | 63 | 249 | 0.0 | 0.0 | 0.00 | 0.27 | 0.27 | 99 | 1005.6 |
| 20260507131956 | 63 | 211 | 0.0 | 0.0 | 0.07 | 0.27 | 0.27 | 99 | 1005.4 |
| 20260507131454 | 63 | 211 | 0.0 | 0.0 | 0.07 | 0.27 | 0.27 | 99 | 1005.1 |
| 20260507130950 | 63 | 213 | 0.0 | 0.0 | 0.05 | 0.26 | 0.26 | 99 | 1005.1 |
| 20260507130447 | 63 | 213 | 0.0 | 0.0 | 0.12 | 0.26 | 0.26 | 99 | 1005.6 |
| 20260507125946 | 63 | 212 | 0.0 | 0.0 | 0.12 | 0.25 | 0.25 | 99 | 1005.8 |
| 20260507125444 | 63 | 210 | 0.0 | 0.0 | 0.05 | 0.24 | 0.24 | 99 | 1005.9 |
| 20260507124941 | 63 | 210 | 0.0 | 0.0 | 0.07 | 0.23 | 0.23 | 99 | 1006.5 |
| 20260507124437 | 63 | 211 | 0.0 | 0.0 | 0.19 | 0.23 | 0.23 | 99 | 1006.6 |
| 20260507123936 | 63 | 223 | 0.0 | 0.0 | 0.19 | 0.22 | 0.22 | 99 | 1006.9 |
| 20260507123433 | 63 | 220 | 0.0 | 0.0 | 0.12 | 0.20 | 0.20 | 99 | 1006.9 |
| 20260507122929 | 63 | 214 | 1.0 | 1.0 | 0.17 | 0.19 | 0.19 | 99 | 1006.8 |
| 20260507122424 | 63 | 238 | 0.0 | 0.0 | 0.24 | 0.18 | 0.18 | 99 | 1007.4 |
| 20260507121921 | 63 | 237 | 0.0 | 0.0 | 0.19 | 0.16 | 0.16 | 99 | 1007.3 |
| 20260507121416 | 63 | 237 | 0.0 | 0.0 | 0.07 | 0.14 | 0.14 | 99 | 1007.4 |
| 20260507120913 | 63 | 237 | 0.0 | 0.0 | 0.00 | 0.13 | 0.13 | 99 | 1007.1 |
| 20260507120409 | 63 | 236 | 0.0 | 1.0 | 0.00 | 0.13 | 0.13 | 99 | 1007.0 |
| 20260507115906 | 63 | 236 | 0.0 | 0.0 | 0.05 | 0.13 | 0.13 | 99 | 1006.7 |
| 20260507115401 | 63 | 235 | 0.0 | 0.0 | 0.07 | 0.12 | 0.12 | 99 | 1006.4 |
| 20260507114858 | 63 | 320 | 0.0 | 0.0 | 0.12 | 0.12 | 0.12 | 99 | 1006.6 |
| 20260507114355 | 63 | 29 | 1.0 | 1.0 | 0.12 | 0.11 | 0.11 | 99 | 1006.7 |
| 20260507113852 | 63 | 224 | 0.0 | 0.0 | 0.07 | 0.10 | 0.10 | 99 | 1006.8 |
| 20260507113349 | 63 | 226 | 0.0 | 0.0 | 0.05 | 0.09 | 0.09 | 99 | 1006.8 |
| 20260507112846 | 63 | 226 | 0.0 | 0.0 | 0.12 | 0.09 | 0.09 | 99 | 1006.6 |
| 20260507112343 | 63 | 223 | 0.0 | 0.0 | 0.07 | 0.08 | 0.08 | 99 | 1006.4 |
| 20260507111841 | 63 | 227 | 0.0 | 0.0 | 0.00 | 0.07 | 0.07 | 99 | 1006.6 |
| 20260507111338 | 63 | 227 | 0.0 | 0.0 | 0.00 | 0.07 | 0.07 | 99 | 1006.4 |
| 20260507110834 | 63 | 227 | 0.0 | 0.0 | 0.00 | 0.07 | 0.07 | 99 | 1006.4 |
| 20260507110330 | 63 | 227 | 0.0 | 0.0 | 0.00 | 0.07 | 0.07 | 99 | 1006.3 |
| 20260507105827 | 63 | 227 | 0.0 | 0.0 | 0.00 | 0.07 | 0.07 | 99 | 1006.1 |
| 20260507105323 | 63 | 227 | 0.0 | 0.0 | 0.00 | 0.07 | 0.07 | 99 | 1006.1 |
| 20260507104821 | 63 | 224 | 0.0 | 0.0 | 0.00 | 0.07 | 0.07 | 99 | 1005.5 |
| 20260507104317 | 63 | 222 | 0.0 | 0.0 | 0.00 | 0.07 | 0.07 | 99 | 1005.6 |
| 20260507103813 | 63 | 280 | 0.0 | 1.0 | 0.00 | 0.07 | 0.07 | 99 | 1006.0 |
| 20260507103309 | 63 | 280 | 0.0 | 0.0 | 0.00 | 0.07 | 0.07 | 99 | 1006.1 |
| 20260507102806 | 63 | 280 | 0.0 | 0.0 | 0.00 | 0.07 | 0.07 | 99 | 1006.1 |
| 20260507102306 | 63 | 280 | 0.0 | 0.0 | 0.00 | 0.07 | 0.07 | 99 | 1006.2 |
| 20260507101800 | 63 | 281 | 0.0 | 0.0 | 0.00 | 0.07 | 0.07 | 99 | 1006.4 |
| 20260507101259 | 63 | 281 | 0.0 | 0.0 | 0.00 | 0.07 | 0.07 | 99 | 1006.0 |
| 20260507100757 | 63 | 281 | 0.0 | 0.0 | 0.00 | 0.07 | 0.07 | 99 | 1006.0 |
| 20260507100255 | 63 | 281 | 0.0 | 0.0 | 0.00 | 0.07 | 0.07 | 99 | 1006.2 |